s. 12.12.2005, 10-vuotias (VARL) - km lsi sks 160cm - trakehner-tamma
ko he B, re 150cm - kasv. Kingsvalley

Winnie tulee varsin hienosta suvusta - isän paikalta löytyy hieno kimo esteori Black River's Redfox, jolta Winnien kimo väri on peräisin. Ori on myös palkittu esteratsastusjaoksen III-laatupalkinnolla. Winnipegin isänisä on kuuluisa Alté. Winnien emä on Impera Estaten kasvatti Wicca Impera, jonka isä on komea kantakirjaori Le Fantôme Noir.
Champion -arvonimenkin saavuttanut musta ori on saavuttanut hyviä tuloksia kilpaurallaan. Myös emänemä Grishild Ingrid on kenttäpainotteinen.

Winnie on luonteeltaan sisukas, mutta toisaalta melko hyvätapainen. Isänsä tavoin häneltä löytyy omaakin tahtoa, vaikka hän yleensä esiintyykin varsin kilttinä, mitä hoitamiseen tulee. Temperamenttisuus tuleekin esille vain silloin, kun tamma joutuu tekemään jotain, mikä ei häntä huvita. Muuten kaverin voi uskoa vaikka vasta-alkajalle hoidettavaksi.

Ratsastettaessa Winnipeg osaa ottaa rennosti, vaikkakin tamma on samaan aikaan myös hyvin eteenpäinpyrkivä. Winnipeg on kuitenkin siitä mukava, ettei se juokse pää pilvissä tai kuumene hurjasti esimerkiksi esteharjoituksissa. Tamma kuunteleekin apuja hyvin tilanteessa kuin tilanteessa, ja on varsinainen luottoratsu.


i. Black River's Redfox
ERJ III
ii. Alté
iii. Allergo
iee. Carmila
ie. Eritrea
iei. Orville
iee. Bluefox
e. Wicca Impera ei. Le Fantôme Noir eii. Ehrenfels
eie. Tarantelia
ee. Grishild Ingrid GER
eei. Irving Garth
eee. Geraldine


Winnipegillä ei ole vielä jälkikasvua.




16/06/2006 - ERJ - Toivoton - 60-70cm - 23/50
17/06/2006 - ERJ - Ithildin - 50-60cm - 20/40
30/06/2006 - ERJ - Sárga & Afanasiy Russians - 80cm - 49/50
01/07/2006 - ERJ - Light Dragon - 110cm - 32/40
08/07/2006 - ERJ - Kirveltäjä - 110cm - 3/50 (rp)
12/08/2006 - ERJ - Ratsastusseura Salama - 110cm - 62/72
30/08/2006 - ERJ - Hevosten Paratiisi - 90-100cm - 42/55
30/08/2006 - ERJ - Hevosten Paratiisi - 100-110cm - 33/55
30/08/2006 - ERJ - PT Hillander - 90-100cm - 6/80 (rp)
02/09/2006 - ERJ - Diavlo - 80-100cm - 58/115
03/09/2006 - ERJ - RaZoRa - 90cm - 2/30 (rp)
03/09/2006 - ERJ - FSRa - 90-100cm - 42/49
03/09/2006 - ERJ - FSRa - 100-120cm - 21/50
07/09/2006 - ERJ - Eówyn - 80-100cm - 8/45
08/09/2006 - ERJ - Stall Hjerte - 100-110cm - 20/40
11/09/2006 - ERJ - Cresendo - 90-100cm - 39/70
11/09/2006 - ERJ - Cresendo - 110-120cm - 55/66
24/09/2006 - ERJ - Summer Land - 120cm - 50/52
25/09/2006 - ERJ - MAGMA-tallit - 120cm - hyl
28/09/2006 - ERJ - Could Arabian Farm - 110-130cm - 10/43
03/10/2006 - ERJ - Yave - 120cm - 12/50
07/10/2006 - ERJ - Heijastus & Pohjola - 80cm - 5/19
07/10/2006 - ERJ - Heijastus & Pohjola - 80cm aikaratsastus - 1/96 (rp)
09/10/2006 - ERJ - KK Siipiäinen - 100-110cm - 83/97
09/10/2006 - ERJ - KK Siipiäinen - 120cm - 55/68
09/10/2006 - ERJ - Karhunpolku - 100cm - 12/120
09/10/2006 - ERJ - Karhunpolku - 120cm - hyl
10/10/2006 - ERJ - Virtuaalitalli Neia - 110cm - 82/88
13/10/2006 - ERJ - Dew - 120cm - 27/38
15/10/2006 - ERJ - Vuokkola - 120cm - 7/28
15/10/2006 - ERJ - Harjan-Huiske - 100-110cm - 20/118
21/10/2006 - ERJ - Dew - 100cm - 12/41
22/10/2006 - ERJ - ST Gamette - 120-130cm - 7/58 (rp)
22/10/2006 - ERJ - Kt Kankinimas - 120cm - 59/77
22/10/2006 - ERJ - Wh Wild Horses - 60-80cm - 2/40 (rp)
22/10/2006 - ERJ - Wh Wild Horses - 80-100cm - 2/40 (rp)
23/10/2006 - ERJ - Wynlinné - 110-120cm - 1/31 (rp)
24/10/2006 - ERJ - KK No Life - 120cm - 1/47 (rp)
26/10/2006 - ERJ - BR Team - 120cm - 14/24
27/10/2006 - ERJ - PK Sporthorses - 120cm - 12/46
28/10/2006 - ERJ - Peikkiksen kopsut - 110-120cm - 17/35
30/10/2006 - ERJ - KK No Life - 110cm - hyl
05/11/2006 - ERJ - Onnela - 110cm - 7/43
05/11/2006 - ERJ - Onnela - 120cm - 19/41
05/11/2006 - ERJ - FSRa - 120-130cm - 28/49
08/11/2006 - ERJ - KK No Life - 110cm - 6/51 (rp)
08/11/2006 - ERJ - KK No Life - 120cm - 22/48
14/11/2006 - ERJ - Wormand Warmbloods - 100-120cm - 35/73
15/11/2006 - ERJ - Aavan Suomenhevoset - 120cm - 17/65
16/11/2006 - ERJ - PK Sporthorses - 120cm - 1/35 (rp)
16/11/2006 - ERJ - PK Sporthorses - 130cm - 6/20
18/11/2006 - ERJ - Kingston - 120cm - 21/50
23/11/2006 - ERJ - Olympia - 110-120cm - 30/32
27/11/2006 - ERJ - Ristiriita - 100-120cm - 19/56
30/11/2006 - ERJ - KT Zheweran - 120-130cm - 11/26
12/12/2006 - ERJ - KK Puhallus - 120cm - 21/60
19/12/2006 - ERJ - Karinin Puoliveriset - 120-130cm - 7/50 (rp)
19/12/2006 - ERJ - KK Nolife - 130cm - 14/50
20/12/2006 - ERJ - Pouliche - 120-130cm - hyl
26/12/2006 - ERJ - Gneissi - 120-130cm - 12/40
26/12/2006 - ERJ - Seura HUR - 120-130cm - 4/49 (rp)
29/12/2006 - ERJ - Milotsin Ratsutila - 130cm - 28/37
31/12/2006 - ERJ - Horsecenter Overtale - 140cm - 39/59
31/12/2006 - ERJ - VHOY - 140cm - 43/46
07/01/2007 - ERJ - Mirraberg Warmbloods - 120-130cm - 141/194
08/01/2007 - ERJ - Kuusikumpare - 120-130cm - 50/60
20/01/2007 - ERJ - Rautakuja - 120-130cm - 29/89
21/01/2007 - ERJ - Trabarian Stud - 130-140cm - 9/35
26/01/2007 - ERJ - Flyinvalley Stables - 130cm - 3/40 (rp)
27/01/2007 - ERJ - ST Neyasa - 120-140cm - 74/106
28/01/2007 - ERJ - Dew - 130-140cm - 50/58
30/01/2007 - ERJ - Devoto - 130cm - 9/35
30/01/2007 - ERJ - Yt Okariina - 140cm - 39/40
26/01/2007 - ERJ - Flyinvalley Stables - 130-140cm - 9/15
02/02/2007 - ERJ - Etna - 140cm - 15/30
04/02/2007 - ERJ - Trakehner rotuyhdistys - 100cm - 4/15
04/02/2007 - ERJ - Trakehner rotuyhdistys - 130-140cm - 5/9
04/02/2007 - ERJ - Vaapukka - 120-140cm - 42/50
04/02/2007 - ERJ - Overtale - 140cm - 37/43
05/02/2007 - ERJ - Kostenlooss - 140cm - 19/35
10/02/2007 - ERJ - Heardland - 120-130cm - 18/44
15/02/2007 - ERJ - Le Château d'Escaillon - 130-140cm - 4/42 (rp)
04/03/2007 - ERJ - Tammimetsä - 130-140cm - 14/76
22/03/2007 - ERJ - Poisonblack - 140cm - 12/30
22/03/2007 - ERJ - Poisonblack - 150cm - 26/30
23/03/2007 - ERJ - BR Team - 140cm - 21/40
23/03/2007 - ERJ - BR Team - 150cm - 1/40 (rp)
25/03/2007 - ERJ - Orilaakso - 130-150cm - 66/80
25/03/2007 - ERJ - Rivendel - 130-140cm - 28/50
28/03/2007 - ERJ - Maple Hill's Warmbloods - 140cm - 1/40 (rp)
28/03/2007 - ERJ - Maple Hill's Warmbloods - 150cm - 5/40 (rp)
30/03/2007 - ERJ - Southern E Arabs - 130-140cm - 8/50
31/03/2007 - ERJ - Southern E Arabs - 130-140cm - 27/50
02/04/2007 - ERJ - Vt Music - 140cm - 30/35
03/04/2007 - ERJ - Halifit Ponies - 140cm - 36/55
05/04/2007 - ERJ - Cradless Stables - 140-150cm - 13/41
06/04/2007 - ERJ - Schecke - Ponys - 130cm - 37/49
06/04/2007 - ERJ - Schecke - Ponys - 140cm - 50/50
17/04/2007 - ERJ - Southern E Arabs - 130-140cm - 5/50 (rp)
29/04/2007 - ERJ - TuHaSe - 150cm - 6/58 (rp)
29/05/2007 - ERJ - Piipari - 120-140cm - 31/50
01/06/2007 - ERJ - Arab Mountain - 130-140cm - 2/26 (rp)
/21 sijoitusta



10/07/2006 - KRJ - Kaviopolun Ratsastuskeskus - he C - 57/101
10/07/2006 - KRJ - Kaviopolun Ratsastuskeskus - he B - 74/143
18/08/2006 - KRJ - Leadership - he C - 1/36 (rp)
18/08/2006 - KRJ - Leadership - he B - 39/50
01/11/2006 - KRJ - KK Kimakka - he C - 61/92
01/11/2006 - KRJ - KK Kimakka - he B - 97/119
/1 sijoitus